Flag for Netherlands Weather past 2 weeks in Amsterdam, Netherlands

Now
70 °F

Passing clouds.


Feels Like: 70 °F
Forecast: 62 / 73 °F
Wind: 13 mph from Southwest

Location: Amsterdam Schiphol Airport

Current Time: Jul 31, 2014 at 11:01:57 AM

Latest Report: Jul 31, 2014 at 10:25 AM


Visibility: N/A

Pressure: 29.98 "Hg

Humidity: 64%

Dew point: 57 °F

Location of AmsterdamLocation

Historic Weather in Amsterdam — Graph

°F

Amsterdam temperature yesterday

Maximum temperature yesterday: 73 °F (at 2:55 PM)
Minimum temperature yesterday: 57 °F (at 4:25 AM)
Average temperature yesterday: 64 °F

Past Weeks' High & Low Weather Summary

 TemperatureHumidityPressure
High93 °F (Jul 19, 3:55 PM)100% (Jul 21, 1:25 AM)30.18 "Hg (Jul 21, 1:25 AM)
Low55 °F (Jul 31, 3:55 AM)30% (Jul 19, 3:55 PM)29.77 "Hg (Jul 19, 5:25 PM)
Average70 °F78%29.97 "Hg
* Reported Jul 16 9:25 AM — Jul 31 9:55 AM, Amsterdam, Weather by CustomWeather, © 2014

Note: Actual official high and low records may vary slightly from our data, if they occured in-between our weather recording intervals... More about our weather records

Advertising

Amsterdam weather history for previous 24 hours

 ConditionsComfort  
Time TempWeatherWind HumidityBarometerVisibility
9:55 AM
Jul 31
68 °FSunny.13 mph69%29.98 "Hg10 mi
9:25 AM68 °FPassing clouds.9 mph69%29.98 "HgN/A
8:55 AM64 °FSunny.8 mph83%29.98 "Hg10 mi
8:25 AM63 °FSunny.8 mph88%29.98 "Hg10 mi
7:55 AM61 °FSunny.7 mph94%29.98 "Hg10 mi
7:25 AM61 °FSunny.8 mph88%29.98 "Hg10 mi
6:55 AM57 °FClear.6 mph94%29.98 "Hg10 mi
6:25 AM57 °FClear.6 mph94%29.98 "Hg10 mi
5:55 AM55 °FClear.6 mph94%29.98 "Hg10 mi
5:25 AM57 °FClear.6 mph94%29.98 "Hg10 mi
4:55 AM57 °FClear.7 mph94%29.98 "Hg10 mi
4:25 AM57 °FClear.6 mph94%29.98 "Hg10 mi
3:55 AM55 °FClear.3 mph100%29.98 "Hg10 mi
3:25 AM57 °FClear.2 mph94%29.98 "Hg10 mi
2:55 AM57 °FFog.6 mph94%29.98 "HgN/A
2:25 AM57 °FClear.6 mph94%29.98 "Hg10 mi
1:55 AM57 °FClear.6 mph94%29.98 "Hg10 mi
1:25 AM57 °FClear.5 mph94%29.98 "Hg10 mi
12:55 AM59 °FClear.7 mph88%29.98 "Hg10 mi
12:25 AM59 °FClear.6 mph88%29.98 "Hg10 mi
11:55 PM
Jul 30
59 °FClear.6 mph88%29.98 "Hg10 mi
11:25 PM59 °FClear.6 mph88%29.98 "Hg10 mi
10:55 PM59 °FClear.6 mph88%29.98 "Hg10 mi
10:25 PM59 °FSunny.5 mph88%29.98 "Hg10 mi
9:55 PM59 °FSunny.5 mph82%29.98 "Hg10 mi
9:25 PM61 °FSunny.7 mph83%29.98 "Hg10 mi
8:55 PM63 °FPassing clouds.10 mph77%29.98 "HgN/A
8:25 PM64 °FPassing clouds.12 mph68%29.95 "HgN/A
7:55 PM64 °FPassing clouds.13 mph73%29.95 "HgN/A
7:25 PM64 °FPassing clouds.13 mph73%29.95 "HgN/A
6:55 PM68 °FPassing clouds.10 mph64%29.95 "HgN/A
6:25 PM68 °FPassing clouds.12 mph69%29.95 "HgN/A
5:55 PM68 °FPassing clouds.13 mph69%29.95 "HgN/A
5:25 PM68 °FPassing clouds.16 mph69%29.95 "HgN/A
4:55 PM68 °FPassing clouds.17 mph69%29.95 "HgN/A
4:25 PM70 °FScattered clouds.16 mph69%29.95 "HgN/A
3:55 PM70 °FScattered clouds.15 mph69%29.95 "HgN/A
3:25 PM70 °FScattered clouds.15 mph69%29.92 "HgN/A
2:55 PM73 °FScattered clouds.13 mph65%29.92 "HgN/A
2:25 PM72 °FScattered clouds.13 mph69%29.92 "HgN/A
1:55 PM70 °FScattered clouds.14 mph73%29.92 "HgN/A
1:25 PM72 °FScattered clouds.12 mph69%29.92 "HgN/A
12:55 PM72 °FPassing clouds.13 mph73%29.92 "HgN/A
12:25 PM70 °FScattered clouds.10 mph78%29.92 "HgN/A
11:55 AM70 °FScattered clouds.9 mph73%29.92 "HgN/A
11:25 AM70 °FScattered clouds.8 mph69%29.92 "HgN/A
Weather by CustomWeather, © 2014

See weather overviewHow to use our weather pages